Regional Weather Roundup
Issued by NWS Charleston, SC

Current Version | Previous Version | Graphics & Text | Print | Product List | Glossary On
Versions: 1 2 3 4 5 6 7 8 9 10 11 12 13 14 15 16 17 18 19 20 21 22 23 24 25 26 27 28 29 30 31 32 33 34 35 36 37 38 39 40 41 42 43 44 45 46 47 48 49 50
127
ASUS42 KCHS 090927
RWRCHS

REGIONAL WEATHER ROUNDUP
NATIONAL WEATHER SERVICE CHARLESTON SC
400 AM EST FRI DEC 09 2016

NOTE: "FAIR" INDICATES FEW OR NO CLOUDS BELOW 12,000 FEET WITH NO
SIGNIFICANT WEATHER AND/OR OBSTRUCTIONS TO VISIBILITY.

NOT ALL STATIONS ARE QUALITY CONTROLLED. USE DATA WITH CAUTION...
ESPECIALLY DEWPOINT OBSERVATIONS.

SCZ027-030-031-034>040-042>050-091000-
...SOUTHEAST SOUTH CAROLINA...

CITY           SKY/WX    TMP DP  RH WIND       PRES   REMARKS
N CHARLESTON   CLOUDY    42  29  59 N9        30.28R
WATERFRONT PRK   N/A     47  34  60 N9        30.27R
MOUNT PLEASANT FAIR      45  30  57 N6        30.29R
JOHNS ISLAND   FAIR      43  30  61 NW8       30.28S
PINOPOLIS        N/A     46  30  53 N17       30.20S
MONCKS CORNER  FAIR      43  21  42 N6        30.29R
SUMMERVILLE    FAIR      39  30  70 N3        30.31R
BEAUFORT MCAS  MOCLDY    45  29  53 N10       30.30R
BEAUFORT ARPT  FAIR      43  30  61 N8        30.30R
HILTON HEAD IS CLOUDY    46  28  49 NW14G21   30.30R
WALTERBORO     CLOUDY    37  30  75 N3        30.32R
ALLENDALE      FAIR      37  30  75 NW3       30.31S

...SOUTHERN MIDLANDS AND PEE DEE...

CITY           SKY/WX    TMP DP  RH WIND       PRES   REMARKS
GEORGETOWN     NOT AVBL
KINGSTREE      FAIR      36  27  69 CALM      30.30R
ORANGEBURG     PTCLDY    39  20  46 N6        30.31R WCI  35
BARNWELL       NOT AVBL
AIKEN          FAIR      32  27  80 NW3       30.35R
MANNING        FAIR      36  28  75 NW3       30.31R
COLUMBIA       CLEAR     39  18  42 NW7       30.32R WCI  34
SUMTER         CLEAR     36  22  57 NW8       30.28S WCI  29
FLORENCE       CLEAR     37  22  54 N9        30.30S WCI  30
MYRTLE BEACH   CLOUDY    41  23  48 N9        30.30S
N MYRTLE BEACH PTCLDY    38  28  67 N7        30.27R WCI  33

$$

GAZ063-065-086>088-099>101-113>116-118-119-134>141-150-091000-
...SOUTHEAST GEORGIA...

CITY           SKY/WX    TMP DP  RH WIND       PRES   REMARKS
SAVANNAH ARPT  CLOUDY    43  26  51 NW10      30.31R
HUNTER AAF     CLOUDY    44  30  58 NW9       30.28R
FORT STEWART   CLOUDY    43  25  49 NW6       30.29R
STATESBORO     CLOUDY    39  28  65 N7        30.32S WCI  34
SYLVANIA       MOSUNNY  N/A N/A N/A NW5       30.33R
CLAXTON        FAIR      40  28  62 W5        30.34R WCI  37

...CSRA...CENTRAL AND FAR SOUTHEAST GEORGIA...

CITY           SKY/WX    TMP DP  RH WIND       PRES   REMARKS
THOMSON        CLEAR     31  29  92 CALM      30.39R
AUGUSTA-BUSH   CLOUDY    38  23  55 NW7       30.33R WCI  33
AUGUSTA-DANIEL PTCLDY    38  20  48 NW8       30.33R WCI  32
SWAINSBORO     FAIR      36  25  64 NW6       30.35R WCI  31
VIDALIA        CLOUDY    37  30  75 N8        30.34R WCI  31
EASTMAN        FAIR      38  11  33 CALM      30.39R
HAZLEHURST     FAIR      40  24  52 CALM      30.35R
ALMA           CLOUDY    42  22  44 NW8       30.34R
WAYCROSS       CLOUDY    45  28  50 N7        30.34R
JESUP          FAIR      45  30  57 N6        30.32S
BAXLEY         FAIR      41  28  60 N7        30.34R
BRUNSWICK      CLOUDY    45  32  61 NW7       30.32S
SAINT SIMONS   CLOUDY    46  25  43 NW12      30.30R

$$

SCZ027-028-034-036>038-045-046-048>050-GAZ119-141-091000-
...LAKE AND SUPPLEMENTAL COASTAL OBSERVATIONS...

STATION/POSITION TIME  TEMP    WIND        PRES    WAVE   SWELL
                       AIR SEA DIR/SP/G            HT/PER HT/PER/DIR
                 (UTC) (F)     (DEG/KT/KT) (MB)    (FT/S) (FT/S/D)
WINYAH BAY       0830   43     340/  8     1025.0S
LAKE MURRAY      0920   36     320/  2/  7 1026.4R
ACE BASIN NERRS  0845   43     340/  4     1025.0S
FORT PULASKI     0900   45 61  350/ 12/ 14 1025.9
SAPELO ISLAND    0900   47     350/ 11     1026.0

$$

ANZ835-935-AMZ111-154-330-350-352-354-370-450-454-472-091000-
...C-MAN AND BUOY OBSERVATIONS...

STATION/POSITION TIME  TEMP    WIND        PRES    WAVE   SWELL
                       AIR SEA DIR/SP/G            HT/PER HT/PER/DIR
                 (UTC) (F)     (DEG/KT/KT) (MB)    (FT/S) (FT/S/D)
BUOY 41004       0850   53 74  350/ 17/ 23 1023.3R   4/ 6
BUOY 41008       0850   52 63  350/ 17/ 23 1024.6R   5/ 5   2/ 40/11
FOLLY BEACH CMAN 0900   47     350/ 12/ 15 1025.4R
CAPERS NEARSHORE 0908   47 61  360/ 17/ 23 1024.5R
FRIPP NEARSHORE  0908   49 61  360/ 17/ 21 1025.2R


STATION/POSITION TIME  TEMP    WIND        PRES    WAVE   SWELL
                       AIR SEA DIR/SP/G            HT/PER HT/PER/DIR
                 (UTC) (F)     (DEG/KT/KT) (MB)    (FT/S) (FT/S/D)
5E ST. MARYS GA  0900      65                N/A     4/ 6   2/ 90/11
FRYING PAN BUOY  0910   51 73  340/ 19/ 27 1023.5
BUOY 41025       0850   48 75  350/ 23/ 31 1021.2R   6/ 6   2/ 80/ 9
CAPE LOOKOUT NC  0900   42     340/ 22/ 26 1023.4R
BUOY 41002       0850   65 74  350/ 19/ 25 1018.9R   7/ 6
BUOY 41010       NOT AVBL
ST AUGUSTINE FL  0900   51 66  320/ 10/ 13 1025.6R


$$




USA.gov is the U.S. government's official web portal to all federal, state and local government web resources and services.